OIAW

Ahvaz International Airport

Airport
ICAO code
OIAW
IATA Code
AWZ
Summary
ICAO Region
MID
ICAO Territory
Location

Ahvaz, Khuzestan

Serving
Ahvas
Elevation
66 ft
Coordinates
31° 20' 15" N , 48° 45' 37" E
KCC
Metar
OIAW 270400Z 00000KT 8000 NSC 07/04 Q1015 NOSIG

Ahvaz (or Ahwaz) airport serves the city of Ahvaz, west Iran.

Climatology

Hot Desert Climate (Köppen climate classification BWh)

Runways

Designator Length Width Surface Rops
12/30 3398 45 ASP Yes/Yes

Airport map

Aerial View

SKYbrary Partners:

Safety knowledge contributed by: